Regional Weather Roundup
Issued by NWS

Home | Current Version | Previous Version | Graphics & Text | Print | Product List | Glossary Off
Versions: 1 2 3 4 5 6 7 8 9 10 11 12 13 14 15 16 17 18 19 20 21 22 23 24 25 26 27 28 29 30 31 32 33 34 35 36 37 38 39 40 41 42 43 44 45 46 47 48 49 50

065
ASUS43 KTOP 300208
RWRKS

WEATHER ROUNDUP FOR KANSAS
NATIONAL WEATHER SERVICE GOODLAND KS
900 PM CDT WED MAR 29 2017

NOTE:  "FAIR" INDICATES FEW OR NO CLOUDS BELOW 12,000 FEET WITH NO
SIGNIFICANT WEATHER AND/OR OBSTRUCTIONS TO VISIBILITY.

KSZ001>006-013>018-027>032-041>047-300300-
NORTHWEST KANSAS

CITY           SKY/WX    TMP DP  RH WIND       PRES   REMARKS
GOODLAND       CLOUDY    42  38  85 N13       29.93S
HAYS             N/A     40  38  93 N26G33    29.79R WCI  29
HILL CITY      LGT RAIN  39  38  96 N21G30    29.87S WCI  29
RUSSELL        LGT RAIN  42  40  92 N22       29.75R
$$

KSZ061>065-074>080-084>089-300300-
SOUTHWEST KANSAS

CITY           SKY/WX    TMP DP  RH WIND       PRES   REMARKS
DODGE CITY     CLOUDY    39  37  92 N24G35    29.82S WCI  28
ELKHART          N/A     43  33  68 NW10        N/A
GARDEN CITY    CLOUDY    41  39  93 N20G31    29.86S
GREAT BEND     LGT RAIN  41  39  93 NW17G29   29.75R FOG
LIBERAL        CLOUDY    45  37  76 N16       29.89S
PRATT          CLOUDY    38  38  98 NW28G37   29.73S FOG     WCI  27
$$

KSZ066>073-081>083-090>101-300300-
SOUTHEAST KANSAS

CITY           SKY/WX    TMP DP  RH WIND       PRES   REMARKS
CHANUTE        PTCLDY    58  52  80 SW13      29.63S
COFFEYVILLE    CLEAR     57  48  72 SW14      29.67R
HUTCHINSON     LGT RAIN  43  41  93 N22G32    29.65R FOG
MEDICINE LODGE   N/A     43  38  82 NW20G33   29.72R
NEWTON         LGT RAIN  45  44  97 N20       29.61R
PARSONS        CLOUDY    57  49  74 SW8       29.67R
WICHITA INTL   CLOUDY    46  45  96 NW21      29.61R
WICHITA JABRA  LGT RAIN  48  48 100 NW14      29.59R FOG
WICHITA MCCONL LGT RAIN  48  46  93 NW12      29.59R
WINFIELD       CLOUDY    48  46  93 SW18G25   29.64R
$$

KSZ007>012-019>026-033>040-048>060-102>105-300300-
NORTHEAST KANSAS

CITY           SKY/WX    TMP DP  RH WIND       PRES   REMARKS
CONCORDIA      LGT RAIN  42  42 100 N16G25    29.71S FOG
EMPORIA        MOCLDY    55  49  80 S16       29.61R
LAWRENCE       TSTM      56  55  97 NE15      29.62F
MANHATTAN      LGT RAIN  47  45  93 N12G18    29.64F
MARYSVILLE     TSTM      43  43 100 NE18G24   29.68S
OLATHE IND     TSTM      57  56  96 N10       29.64F FOG
OLATHE EXE     CLOUDY    56  56 100 NE9       29.65R
SALINA         CLOUDY    45  42  89 N17       29.67S
TOPEKA BILLARD CLOUDY    56  55  97 E8        29.62R
TOPEKA FORBES  MOCLDY    57  55  93 E8        29.62R
$$




USA.gov is the U.S. government's official web portal to all federal, state and local government web resources and services.